User: anonymous   Login
Location: Rayville (historical)
(39.9992°N, 99.6815°W)
Time: 17:57:23
(UTC+00:00)
Language:

Lacrosse 5 - Orbit

View from above orbital plane
View from above orbital plane
View from above satellite
View from above satellite

Ground track
Ground track

The orbit data is extracted from the following two-line orbital elements,

1 28646U 05016A   20148.90551540 0.00000000  00000-0  00000-0 0    05
2 28646  57.0124  72.5947 0006233 111.9585 248.0414 14.51892934    04
Epoch (UTC): 27 May 2020 21:43:56
Eccentricity: 0.0006233
inclination: 57.0124°
perigee height: 715 km
apogee height: 724 km
right ascension of ascending node: 72.5947°
argument of perigee: 111.9585°
revolutions per day: 14.51892934
mean anomaly at epoch: 248.0414°
orbit number at epoch: 0

The dashed part of the orbit path shows where the satellite is in the earth's shadow,  

DLR